Home   Weather   Neu-Ulm   Past weeks

Flag for Germany Past Weather in Neu-Ulm, Bavaria, Germany — Yesterday and Last 2 Weeks

Now
46 °F

Partly sunny.


Feels Like: 41 °F
Forecast: 42 / 49 °F
Wind: 13 mph from Southwest

Location: Laupheim Airport

Current Time: Feb 20, 2017 at 2:46:54 pm

Latest Report: Feb 20, 2017 at 1:20 pm


Visibility: N/A

Pressure: 30.18 "Hg

Humidity: 62%

Dew Point: 34 °F

Location of Neu-UlmLocation

Past Weather in Neu-Ulm — Graph

°F

Neu-Ulm Temperature Yesterday

Maximum temperature yesterday: 45 °F (at 4:20 pm)
Minimum temperature yesterday: 27 °F (at 2:20 am)
Average temperature yesterday: 34 °F

High & Low Weather Summary for the Past Weeks

 TemperatureHumidityPressure
High55 °F (Feb 16, 4:20 pm)100% (Feb 7, 1:20 am)30.54 "Hg (Feb 7, 1:20 am)
Low23 °F (Feb 11, 4:20 am)41% (Feb 16, 4:20 pm)29.53 "Hg (Feb 5, 2:20 pm)
Average33 °F87%30.19 "Hg
* Reported Feb 5 1:20 pm — Feb 20 1:20 pm, Neu-Ulm, Weather by CustomWeather, © 2017

Note: Actual official high and low records may vary slightly from our data, if they occured in-between our weather recording intervals... More about our weather records

Advertising

Neu-Ulm Weather History for the Previous 24 Hours

Scroll right to see more
 ConditionsComfort  
Time TempWeatherWind HumidityBarometerVisibility
1:20 pm
Mon, Feb 20
46 °FPartly sunny.13 mph62%30.18 "HgN/A
12:20 pm46 °FPartly sunny.16 mph62%30.21 "HgN/A
11:20 am45 °FScattered clouds.15 mph66%30.21 "HgN/A
10:20 am41 °FPartly sunny.9 mph76%30.21 "HgN/A
9:20 am41 °FPartly sunny.9 mph76%30.21 "HgN/A
8:20 am39 °FPartly sunny.7 mph81%30.21 "HgN/A
7:20 am39 °FOvercast.8 mph81%30.18 "HgN/A
6:20 am39 °FOvercast.7 mph81%30.18 "HgN/A
5:20 am39 °FPassing clouds.6 mph81%30.18 "HgN/A
4:20 am39 °FPassing clouds.5 mph81%30.18 "HgN/A
3:20 am39 °FPassing clouds.8 mph81%30.18 "HgN/A
2:20 am39 °FPassing clouds.8 mph81%30.21 "HgN/A
1:20 am39 °FPassing clouds.7 mph81%30.21 "HgN/A
12:20 am39 °FPassing clouds.5 mph87%30.21 "HgN/A
11:20 pm
Sun, Feb 19
39 °FPassing clouds.5 mph81%30.21 "HgN/A
10:20 pm39 °FPassing clouds.5 mph81%30.21 "HgN/A
9:20 pm39 °FPassing clouds.5 mph81%30.18 "HgN/A
8:20 pm39 °FPassing clouds.3 mph81%30.18 "HgN/A
7:20 pm41 °FPassing clouds.6 mph76%30.18 "HgN/A
6:20 pm41 °FPassing clouds.5 mph76%30.18 "HgN/A
5:20 pm43 °FPartly sunny.7 mph71%30.15 "HgN/A
4:20 pm45 °FPartly sunny.8 mph71%30.18 "HgN/A
3:20 pm43 °FPartly sunny.9 mph71%30.18 "HgN/A
2:20 pm41 °FPartly sunny.9 mph76%30.18 "HgN/A
Weather by CustomWeather, © 2017

See weather overviewHow to use our weather pages